Weather History for KCGZ - July, 2013

Change the Weather History Date:

Wednesday, July 17, 2013

  Actual Average Record
Temperature  
Mean Temperature 88 °F -  
Max Temperature 100 °F 101 °F 114 °F (2005)
Min Temperature 77 °F 77 °F 75 °F (2000)
Cooling Degree Days 24    
Growing Degree Days 38 (Base 50)    
Moisture  
Dew Point 65 °F    
Average Humidity 51    
Maximum Humidity 94    
Minimum Humidity 24    
Precipitation  
Precipitation 0.76 in - - ()
Sea Level Pressure  
Sea Level Pressure 29.96 in    
Wind  
Wind Speed 3 mph (North)    
Max Wind Speed 14 mph    
Max Gust Speed 20 mph    
Visibility 10 miles    
Events      
Averages and records for this station are not official NWS values.
T = Trace of Precipitation, MM = Missing Value Source: NWS Daily Summary

Daily Weather History Graph

Daily Weather History Graph

Search for Another Location

Airport or City:

Trip Planner

Search our weather history database for the weather conditions in past years. The results will help you decide how hot, cold, wet, or windy it might be!

Date:

Astronomy

Jul. 17, 2013 Rise Set
Actual Time 5:30 AM MST 7:35 PM MST
Civil Twilight 5:02 AM MST 8:03 PM MST
Nautical Twilight 4:28 AM MST 8:37 PM MST
Astronomical Twilight 3:52 AM MST 9:13 PM MST
Moon 2:32 PM MST (7/17) 12:34 AM MST (7/17)
Length of Visible Light 15h 00m
Length of Day
14h 04m
Waxing Gibbous, 68% of the Moon is Illuminated
Jul 17
Waxing Gibbous
Jul 22
Full
Jul 29
Last Quarter
Aug 6
New
Aug 14
First Quarter

Hourly Weather History & Observations

Time (MST) Temp. Heat Index Dew Point Humidity Pressure Visibility Wind Dir Wind Speed Gust Speed Precip Events Conditions
12:15 AM 78.8 °F - 73.4 °F 83% 29.99 in 10.0 mi Calm Calm - N/A   Clear
12:35 AM 78.8 °F - 73.4 °F 83% 29.99 in 10.0 mi Calm Calm - N/A   Clear
12:55 AM 78.8 °F - 73.4 °F 83% 29.99 in 10.0 mi Calm Calm - N/A   Clear
1:15 AM 78.8 °F - 73.4 °F 83% 29.98 in 10.0 mi South 4.6 mph - N/A   Clear
1:35 AM 78.8 °F - 73.4 °F 83% 29.98 in 10.0 mi Calm Calm - N/A   Clear
1:55 AM 78.8 °F - 73.4 °F 83% 29.97 in 10.0 mi SSW 4.6 mph - N/A   Clear
2:15 AM 77.0 °F - 73.4 °F 89% 29.97 in 10.0 mi Calm Calm - N/A   Clear
2:35 AM 78.8 °F - 73.4 °F 83% 29.97 in 10.0 mi Calm Calm - N/A   Clear
2:55 AM 78.8 °F - 73.4 °F 83% 29.96 in 10.0 mi Calm Calm - N/A   Clear
3:15 AM 77.0 °F - 73.4 °F 89% 29.97 in 10.0 mi Calm Calm - N/A   Clear
3:35 AM 77.0 °F - 73.4 °F 89% 29.97 in 10.0 mi North 3.5 mph - N/A   Clear
3:55 AM 77.0 °F - 73.4 °F 89% 29.97 in 10.0 mi NNE 3.5 mph - N/A   Clear
4:15 AM 77.0 °F - 73.4 °F 89% 29.97 in 10.0 mi ENE 4.6 mph - N/A   Clear
4:35 AM 77.0 °F - 75.2 °F 94% 29.97 in 10.0 mi Calm Calm - N/A   Clear
4:55 AM 77.0 °F - 75.2 °F 94% 29.97 in 9.0 mi Calm Calm - N/A   Clear
5:15 AM 77.0 °F - 75.2 °F 94% 29.97 in 10.0 mi Calm Calm - N/A   Clear
5:35 AM 77.0 °F - 75.2 °F 94% 29.99 in 10.0 mi Calm Calm - N/A   Clear
5:55 AM 77.0 °F - 73.4 °F 89% 29.99 in 10.0 mi Calm Calm - N/A   Clear
6:15 AM 78.8 °F - 75.2 °F 89% 30.00 in 10.0 mi NNE 3.5 mph - N/A   Clear
6:35 AM 80.6 °F 85.4 °F 73.4 °F 79% 30.01 in 10.0 mi Calm Calm - N/A   Clear
6:55 AM 80.6 °F 85.4 °F 73.4 °F 79% 30.01 in 10.0 mi Calm Calm - N/A   Partly Cloudy
7:15 AM 82.4 °F 87.2 °F 71.6 °F 70% 30.01 in 10.0 mi SE 3.5 mph - N/A   Partly Cloudy
7:35 AM 82.4 °F 86.3 °F 69.8 °F 66% 30.02 in 10.0 mi Calm Calm - N/A   Clear
7:55 AM 82.4 °F 86.3 °F 69.8 °F 66% 30.02 in 10.0 mi Calm Calm - N/A   Clear
8:15 AM 82.4 °F 86.3 °F 69.8 °F 66% 30.03 in 10.0 mi Calm Calm - N/A   Clear
8:35 AM 84.2 °F 88.4 °F 69.8 °F 62% 30.02 in 10.0 mi Calm Calm - N/A   Clear
8:55 AM 84.2 °F 88.4 °F 69.8 °F 62% 30.02 in 10.0 mi Calm Calm - N/A   Clear
9:15 AM 86.0 °F 89.4 °F 68.0 °F 55% 30.02 in 10.0 mi Calm Calm - N/A   Clear
9:35 AM 87.8 °F 90.4 °F 66.2 °F 49% 30.02 in 10.0 mi East 5.8 mph - N/A   Clear
9:55 AM 87.8 °F 90.4 °F 66.2 °F 49% 30.02 in 10.0 mi ENE 3.5 mph - N/A   Clear
10:15 AM 89.6 °F 91.1 °F 64.4 °F 43% 30.02 in 10.0 mi ENE 5.8 mph - N/A   Clear
10:35 AM 89.6 °F 91.1 °F 64.4 °F 43% 30.01 in 10.0 mi SE 5.8 mph - N/A   Clear
10:55 AM 91.4 °F 93.2 °F 64.4 °F 41% 30.01 in 10.0 mi ESE 5.8 mph - N/A   Clear
11:15 AM 91.4 °F 93.2 °F 64.4 °F 41% 30.01 in 10.0 mi Calm Calm - N/A   Clear
11:35 AM 91.4 °F 92.1 °F 62.6 °F 38% 30.00 in 10.0 mi Calm Calm - N/A   Clear
11:55 AM 93.2 °F 94.1 °F 62.6 °F 36% 30.00 in 10.0 mi NNE 3.5 mph - N/A   Clear
12:15 PM 93.2 °F 93.3 °F 60.8 °F 34% 29.99 in 10.0 mi Calm Calm - N/A   Clear
12:35 PM 95.0 °F 95.2 °F 60.8 °F 32% 29.98 in 10.0 mi SSE 6.9 mph - N/A   Clear
12:55 PM 95.0 °F 95.2 °F 60.8 °F 32% 29.97 in 10.0 mi Calm Calm - N/A   Clear
1:15 PM 96.8 °F 97.1 °F 60.8 °F 30% 29.97 in 10.0 mi Calm Calm - N/A   Clear
1:35 PM 96.8 °F 96.2 °F 59.0 °F 28% 29.96 in 10.0 mi Calm Calm - N/A   Clear
1:55 PM 98.6 °F 98.5 °F 59.0 °F 27% 29.95 in 10.0 mi South 5.8 mph - N/A   Clear
2:15 PM 98.6 °F 98.5 °F 59.0 °F 27% 29.94 in 10.0 mi NNW 4.6 mph - N/A   Clear
2:35 PM 98.6 °F 98.5 °F 59.0 °F 27% 29.93 in 10.0 mi South 4.6 mph - N/A   Clear
2:55 PM 98.6 °F 97.6 °F 57.2 °F 25% 29.93 in 10.0 mi South 5.8 mph - N/A   Clear
3:15 PM 98.6 °F 97.6 °F 57.2 °F 25% 29.92 in 10.0 mi SSE 8.1 mph - N/A   Clear
3:35 PM 100.4 °F 100.2 °F 59.0 °F 25% 29.91 in 10.0 mi South 9.2 mph - N/A   Clear
3:55 PM 100.4 °F 99.7 °F 57.2 °F 24% 29.90 in 10.0 mi West 5.8 mph - N/A   Clear
4:15 PM 100.4 °F 99.7 °F 57.2 °F 24% 29.89 in 10.0 mi WNW 3.5 mph - N/A   Clear
4:35 PM 100.4 °F 99.7 °F 57.2 °F 24% 29.89 in 10.0 mi North 5.8 mph - N/A   Clear
4:55 PM 100.4 °F 99.7 °F 57.2 °F 24% 29.88 in 10.0 mi WNW 9.2 mph - N/A   Clear
5:15 PM 100.4 °F 99.7 °F 57.2 °F 24% 29.88 in 10.0 mi WSW 6.9 mph - N/A   Clear
5:35 PM 100.4 °F 99.7 °F 57.2 °F 24% 29.88 in 10.0 mi WSW 5.8 mph - N/A   Partly Cloudy
5:55 PM 98.6 °F 97.6 °F 57.2 °F 25% 29.88 in 10.0 mi WNW 11.5 mph - N/A   Partly Cloudy
6:15 PM 98.6 °F 97.6 °F 57.2 °F 25% 29.88 in 10.0 mi WNW 8.1 mph - N/A   Clear
6:35 PM 98.6 °F 97.6 °F 57.2 °F 25% 29.88 in 10.0 mi West 5.8 mph - N/A   Clear
6:55 PM 98.6 °F 97.6 °F 57.2 °F 25% 29.88 in 10.0 mi NW 8.1 mph - N/A   Clear
7:15 PM 98.6 °F 97.6 °F 57.2 °F 25% 29.88 in 10.0 mi NW 4.6 mph - N/A   Clear
7:35 PM 98.6 °F 97.6 °F 57.2 °F 25% 29.89 in 10.0 mi NW 6.9 mph - N/A   Clear
7:55 PM 96.8 °F 96.2 °F 59.0 °F 28% 29.89 in 10.0 mi NW 13.8 mph - N/A   Clear
8:15 PM 93.2 °F 94.1 °F 62.6 °F 36% 29.90 in 10.0 mi NNW 10.4 mph - N/A   Clear
8:35 PM 93.2 °F 94.1 °F 62.6 °F 36% 29.90 in 10.0 mi NNW 11.5 mph - N/A   Clear
8:55 PM 91.4 °F 93.2 °F 64.4 °F 41% 29.91 in 10.0 mi North 11.5 mph - N/A   Clear
9:15 PM 91.4 °F 92.1 °F 62.6 °F 38% 29.92 in 10.0 mi North 10.4 mph - N/A   Clear
9:35 PM 91.4 °F 93.2 °F 64.4 °F 41% 29.93 in 10.0 mi North 10.4 mph - N/A   Clear
9:55 PM 91.4 °F 91.4 °F 60.8 °F 36% 29.93 in 10.0 mi ENE 13.8 mph 19.6 mph N/A   Clear
10:15 PM 91.4 °F 89.9 °F 57.2 °F 31% 29.93 in 10.0 mi ENE 11.5 mph - N/A   Clear
10:35 PM 91.4 °F 89.9 °F 57.2 °F 31% 29.93 in 10.0 mi ENE 9.2 mph - N/A   Clear
10:55 PM 89.6 °F 88.1 °F 57.2 °F 33% 29.93 in 10.0 mi ENE 12.7 mph - N/A   Clear
11:15 PM 89.6 °F 88.1 °F 57.2 °F 33% 29.94 in 10.0 mi ENE 12.7 mph - N/A   Clear
11:55 PM 89.6 °F 88.1 °F 57.2 °F 33% 29.94 in 10.0 mi ENE 12.7 mph - N/A   Clear